Time,TemperatureF,DewpointF,PressureIn,WindDirection,WindDirectionDegrees,WindSpeedMPH,WindSpeedGustMPH,Humidity,HourlyPrecipIn,Conditions,Clouds,dailyrainin,SoftwareType,DateUTC
2013-03-14 20:06:00,26.9,15.2,29.96,NNW,342,9.0,16.0,61,0.00,,,0.01,Wunderground v.1.15,2013-03-15 00:06:00,
2013-03-14 20:12:00,26.7,15.4,29.96,WNW,296,11.0,15.0,62,0.00,,,0.01,Wunderground v.1.15,2013-03-15 00:12:00,
2013-03-14 20:14:00,26.7,15.4,29.96,WNW,294,11.0,15.0,62,0.00,,,0.01,Wunderground v.1.15,2013-03-15 00:14:00,
2013-03-14 20:20:00,26.6,15.3,29.96,NW,306,12.0,12.0,62,0.00,,,0.01,Wunderground v.1.15,2013-03-15 00:20:00,
2013-03-14 20:24:00,26.7,15.4,29.96,NW,309,11.0,16.0,62,0.00,,,0.01,Wunderground v.1.15,2013-03-15 00:24:00,
2013-03-14 20:30:00,26.7,15.8,29.96,NW,325,10.0,13.0,63,0.00,,,0.01,Wunderground v.1.15,2013-03-15 00:30:00,
2013-03-14 20:36:00,26.8,15.9,29.97,WNW,293,11.0,13.0,63,0.00,,,0.01,Wunderground v.1.15,2013-03-15 00:36:00,
2013-03-14 20:42:00,26.9,16.0,29.97,WNW,286,11.0,11.0,63,0.00,,,0.01,Wunderground v.1.15,2013-03-15 00:42:00,
2013-03-14 20:48:00,26.9,16.0,29.97,NNW,331,12.0,15.0,63,0.00,,,0.01,Wunderground v.1.15,2013-03-15 00:48:00,
2013-03-14 20:54:00,27.0,16.1,29.96,West,263,11.0,12.0,63,0.00,,,0.01,Wunderground v.1.15,2013-03-15 00:54:00,
2013-03-14 21:00:00,27.0,16.1,29.97,WNW,303,10.0,10.0,63,0.00,,,0.01,Wunderground v.1.15,2013-03-15 01:00:00,
2013-03-14 21:06:00,27.0,16.1,29.96,NW,304,11.0,13.0,63,0.00,,,0.01,Wunderground v.1.15,2013-03-15 01:06:00,
2013-03-14 21:12:00,27.0,16.4,29.96,WNW,303,12.0,13.0,64,0.00,,,0.01,Wunderground v.1.15,2013-03-15 01:12:00,
2013-03-14 21:18:00,27.0,16.1,29.97,WNW,302,11.0,13.0,63,0.00,,,0.01,Wunderground v.1.15,2013-03-15 01:18:00,
2013-03-14 21:24:00,27.0,16.4,29.97,WNW,292,11.0,15.0,64,0.00,,,0.01,Wunderground v.1.15,2013-03-15 01:24:00,
2013-03-14 21:30:00,27.0,16.4,29.97,WNW,295,11.0,11.0,64,0.00,,,0.01,Wunderground v.1.15,2013-03-15 01:30:00,
2013-03-14 21:36:00,27.1,16.5,29.97,NW,311,11.0,13.0,64,0.00,,,0.01,Wunderground v.1.15,2013-03-15 01:36:00,
2013-03-14 21:42:00,27.1,16.2,29.97,West,281,12.0,14.0,63,0.00,,,0.01,Wunderground v.1.15,2013-03-15 01:42:00,
2013-03-14 21:48:00,27.2,16.3,29.97,WNW,301,12.0,14.0,63,0.00,,,0.01,Wunderground v.1.15,2013-03-15 01:48:00,
2013-03-14 21:54:00,27.2,16.3,29.98,NW,306,12.0,14.0,63,0.00,,,0.01,Wunderground v.1.15,2013-03-15 01:54:00,
2013-03-14 22:00:00,27.2,16.3,29.98,WNW,303,11.0,11.0,63,0.00,,,0.01,Wunderground v.1.15,2013-03-15 02:00:00,
2013-03-14 22:06:00,27.2,16.3,29.98,NW,319,11.0,15.0,63,0.00,,,0.01,Wunderground v.1.15,2013-03-15 02:06:00,
2013-03-14 22:12:00,27.2,16.3,29.98,WNW,290,11.0,12.0,63,0.00,,,0.01,Wunderground v.1.15,2013-03-15 02:12:00,
2013-03-14 22:18:00,27.2,16.3,29.98,West,271,11.0,16.0,63,0.00,,,0.01,Wunderground v.1.15,2013-03-15 02:18:00,
2013-03-14 22:24:00,27.2,16.3,29.98,WNW,296,11.0,15.0,63,0.00,,,0.01,Wunderground v.1.15,2013-03-15 02:24:00,
2013-03-14 22:30:00,27.2,16.3,29.98,WNW,297,11.0,15.0,63,0.00,,,0.01,Wunderground v.1.15,2013-03-15 02:30:00,
2013-03-14 22:36:00,27.1,16.2,29.98,NW,325,10.0,15.0,63,0.00,,,0.01,Wunderground v.1.15,2013-03-15 02:36:00,
2013-03-14 22:42:00,27.0,16.1,29.98,NW,321,9.0,9.0,63,0.00,,,0.01,Wunderground v.1.15,2013-03-15 02:42:00,
2013-03-14 22:48:00,26.9,16.0,29.98,NNW,348,9.0,11.0,63,0.00,,,0.01,Wunderground v.1.15,2013-03-15 02:48:00,
2013-03-14 22:54:00,26.7,15.8,29.98,NW,318,8.0,9.0,63,0.00,,,0.01,Wunderground v.1.15,2013-03-15 02:54:00,
2013-03-14 23:00:00,26.7,15.8,29.98,WNW,300,9.0,11.0,63,0.00,,,0.01,Wunderground v.1.15,2013-03-15 03:00:00,
2013-03-14 23:06:00,26.5,15.6,29.99,NW,319,9.0,11.0,63,0.00,,,0.01,Wunderground v.1.15,2013-03-15 03:06:00,
2013-03-14 23:12:00,26.6,15.7,29.99,WNW,294,9.0,14.0,63,0.00,,,0.01,Wunderground v.1.15,2013-03-15 03:12:00,
2013-03-14 23:18:00,26.5,15.2,29.99,WNW,295,10.0,14.0,62,0.00,,,0.01,Wunderground v.1.15,2013-03-15 03:18:00,
2013-03-14 23:24:00,26.5,15.2,30.00,NNW,345,10.0,10.0,62,0.00,,,0.01,Wunderground v.1.15,2013-03-15 03:24:00,
2013-03-14 23:30:00,26.3,15.4,29.99,NW,324,7.0,7.0,63,0.00,,,0.01,Wunderground v.1.15,2013-03-15 03:30:00,
2013-03-14 23:36:00,26.1,14.8,30.00,NNW,336,8.0,10.0,62,0.00,,,0.01,Wunderground v.1.15,2013-03-15 03:36:00,
2013-03-14 23:42:00,25.8,14.9,30.00,NNW,336,7.0,9.0,63,0.00,,,0.01,Wunderground v.1.15,2013-03-15 03:42:00,
2013-03-14 23:48:00,25.6,14.7,30.00,NW,307,6.0,9.0,63,0.00,,,0.01,Wunderground v.1.15,2013-03-15 03:48:00,
2013-03-14 23:54:00,25.4,14.5,30.00,NNW,331,7.0,8.0,63,0.00,,,0.01,Wunderground v.1.15,2013-03-15 03:54:00,